STARLINK-5201, 54076

Orbit data source: Space-Track

STARLINK-5201, 54076 is a payload satellite owned by SpaceX/Seattle (US) in LEO that was launched on Thu, 20 Oct 2022 UTC via an FALCON 9 launch vehicle from the Air Force Eastern Test Range (AFETR). Payload-class satellites include a variety of spacecraft equipped with specific instruments for various scientific and technological missions. These include communications satellites like Starlink; space stations such as the ISS; scientific satellites like the Hubble; Earth observation satellites from companies like Planet Labs, Umbra, and HawkEye 360; GPS; miniature CubeSats for education and research; and military/defense satellites.

Loading next visibility...
Identifier
54076, 2022-136AB
Orbit
LEO
Country
Flag of USUS
Related business
Manufacturer
SpaceX/Seattle
Mission
Operational Commercial Communications
Bus & Motor
STARLINK, Unknown motor
Mass
305 kg wet, ~290 kg dry
Launch date (UTC)
2022-10-20 (3 years ago)
Launch vehicle
FALCON 9
Launch site
Air Force Eastern Test Range (AFETR)
Object type
Payload
Rocket body
Debris
Shape & HBR
Box + 1 Pan, 10.1 m
Radar Cross Section
13.562 m², Large (>1 m²)

Expand to show TLE details & history
Last TLE update: 21 hours ago

TLE from 21 hours ago
0 STARLINK-5201
1 54076U 22136AB  25304.00977887 -.00001271  00000-0 -61779-4 0  9993
2 54076  53.2182 206.4810 0001543  83.8273 276.2895 15.08846241167260
Epoch: 2025-10-31T00:14Z
TLE epoch observation values (Epoch: 2025-10-31T00:14:04.894Z)
Latitude
-0.00001°
Longitude
163.40024°
Altitude
540.505 km
Speed
7.593 km/s
True Right ascension
13h 45m 55s
True Declination
0° 00' 00"
Sunlit
Object was in daylight at epoch
Visualization orbit readout
Latitude
Unknown
Longitude
Unknown
Altitude
Unknown
Speed
Unknown
Apparent Right ascension
Unknown
Apparent Declination
Unknown
Sunlit
N/A
Visualization observer readout
Local Sidereal Time
16:57:19
Azimuth
Unknown
Elevation
Unknown
Doppler factor
Unknown
Orbital elements
Apogee altitude
541.037 km
Perigee altitude
538.902 km
Semi-major axis
6,918.106 km
Eccentricity
0.00015
Inclination
53.2182°
RAAN
206.481°
Arg. of periapsis
83.8273°
True anomaly
276.27192°
Mean anomaly
276.2895°
Eccentric anomaly
276.28071°
Mean motion
3.77192 °/min
Orbital period
95.44 mins
BSTAR
-0.000061779
Loading maneuver chart data...
Computing Atmospheric mass density...
Loading historical data...
Loading historical data...
Loading historical data...
Loading historical data...
Loading historical data...
Loading historical data...
Loading historical data...

Documentation

Showing up to 5 results
|